Kincheloe, MI

6:35 AM EDT on September 26, 2016 (GMT -0400)
Chippewa County International

Weather History for KCIU - November, 2012

Change the Weather History Date:

Friday, November 23, 2012

  Actual Average Record
Temperature  
Mean Temperature 40 °F -  
Max Temperature 55 °F 38 °F 55 °F (2012)
Min Temperature 26 °F 22 °F -3 °F (1989)
Degree Days  
Heating Degree Days 24    
Moisture  
Dew Point 33 °F    
Average Humidity 88    
Maximum Humidity 100    
Minimum Humidity 70    
Precipitation  
Precipitation 0.00 in - - ()
Sea Level Pressure  
Sea Level Pressure 29.55 in    
Wind  
Wind Speed 15 mph (West)    
Max Wind Speed 33 mph    
Max Gust Speed 44 mph    
Visibility 6 miles    
Events      
Averages and records for this station are not official NWS values.
T = Trace of Precipitation, MM = Missing Value Source: NWS Daily Summary

Daily Weather History Graph

Daily Weather History Graph

Search for Another Location

Airport or City:

Trip Planner

Search our weather history database for the weather conditions in past years. The results will help you decide how hot, cold, wet, or windy it might be!

Date:

Astronomy

Nov. 23, 2012 Rise Set
Actual Time 7:50 AM EST 4:57 PM EST
Civil Twilight 7:17 AM EST 5:31 PM EST
Nautical Twilight 6:40 AM EST 6:08 PM EST
Astronomical Twilight 6:04 AM EST 6:44 PM EST
Moon 2:24 PM EST (11/23) 2:55 AM EST (11/23)
Length of Visible Light 10h 13m
Length of Day
9h 07m
Waxing Gibbous, 79% of the Moon is Illuminated
Nov 23
Waxing Gibbous
Nov 28
Full
Dec 6
Last Quarter
Dec 13
New
Dec 20
First Quarter

Hourly Weather History & Observations

Time (EST) Temp. Windchill Dew Point Humidity Pressure Visibility Wind Dir Wind Speed Gust Speed Precip Events Conditions
12:15 AM 55.4 °F - 46.4 °F 72% 29.51 in 10.0 mi SSW 12.7 mph 21.9 mph N/A   Overcast
12:35 AM 55.4 °F - 46.4 °F 72% 29.50 in 10.0 mi SSW 13.8 mph 19.6 mph N/A   Overcast
12:55 AM 55.4 °F - 48.2 °F 77% 29.50 in 10.0 mi SSW 10.4 mph 19.6 mph N/A   Overcast
1:15 AM 53.6 °F - 48.2 °F 82% 29.48 in 10.0 mi SSW 10.4 mph 20.7 mph N/A   Overcast
1:35 AM 53.6 °F - 48.2 °F 82% 29.47 in 10.0 mi SSW 9.2 mph 20.7 mph N/A   Overcast
1:55 AM 53.6 °F - 48.2 °F 82% 29.47 in 10.0 mi SSW 11.5 mph 20.7 mph N/A   Overcast
2:15 AM 53.6 °F - 48.2 °F 82% 29.46 in 10.0 mi SSW 8.1 mph 17.3 mph N/A   Overcast
2:35 AM 53.6 °F - 48.2 °F 82% 29.45 in 10.0 mi SSW 6.9 mph 17.3 mph N/A   Overcast
2:55 AM 53.6 °F - 48.2 °F 82% 29.45 in 10.0 mi SSW 8.1 mph 17.3 mph N/A   Overcast
3:15 AM 53.6 °F - 48.2 °F 82% 29.44 in 10.0 mi SSW 9.2 mph 18.4 mph N/A   Overcast
3:35 AM 51.8 °F - 48.2 °F 88% 29.43 in 10.0 mi SSW 10.4 mph 16.1 mph N/A   Overcast
3:55 AM 51.8 °F - 48.2 °F 88% 29.42 in 10.0 mi SSW 10.4 mph 19.6 mph N/A   Overcast
4:15 AM 51.8 °F - 46.4 °F 82% 29.41 in 10.0 mi SSW 9.2 mph 20.7 mph N/A   Overcast
4:35 AM 48.2 °F - 44.6 °F 87% 29.41 in 10.0 mi SSW 8.1 mph 24.2 mph N/A   Overcast
4:55 AM 46.4 °F 40.4 °F 42.8 °F 87% 29.41 in 10.0 mi SSW 13.8 mph 24.2 mph N/A   Overcast
5:15 AM 46.4 °F 41.1 °F 42.8 °F 87% 29.40 in 10.0 mi SSW 11.5 mph 23.0 mph N/A   Overcast
5:35 AM 46.4 °F 41.5 °F 42.8 °F 87% 29.40 in 10.0 mi SSW 10.4 mph 21.9 mph N/A   Overcast
5:55 AM 42.8 °F 36.2 °F 39.2 °F 87% 29.43 in 10.0 mi West 12.7 mph 27.6 mph N/A   Overcast
6:15 AM 41.0 °F 32.5 °F 37.4 °F 87% 29.44 in 10.0 mi West 17.3 mph 23.0 mph N/A   Overcast
6:35 AM 39.2 °F 31.2 °F 37.4 °F 93% 29.44 in 10.0 mi WSW 13.8 mph - N/A   Overcast
6:55 AM 39.2 °F 29.8 °F 37.4 °F 93% 29.45 in 10.0 mi WSW 18.4 mph 31.1 mph N/A   Overcast
7:15 AM 37.4 °F 28.5 °F 35.6 °F 93% 29.45 in 10.0 mi WSW 15.0 mph 25.3 mph N/A   Overcast
7:35 AM 35.6 °F 25.2 °F 32.0 °F 87% 29.45 in 10.0 mi WSW 18.4 mph 32.2 mph N/A   Overcast
7:55 AM 35.6 °F 28.0 °F 33.8 °F 93% 29.46 in 10.0 mi WSW 10.4 mph 24.2 mph N/A   Overcast
8:15 AM 35.6 °F 25.5 °F 30.2 °F 81% 29.46 in 10.0 mi WSW 17.3 mph 28.8 mph N/A   Overcast
8:35 AM 33.8 °F 25.3 °F 30.2 °F 87% 29.47 in 10.0 mi WSW 11.5 mph 21.9 mph N/A   Overcast
8:55 AM 35.6 °F 29.2 °F 30.2 °F 81% 29.47 in 10.0 mi SW 8.1 mph 18.4 mph N/A   Overcast
9:15 AM 33.8 °F 25.3 °F 30.2 °F 87% 29.47 in 10.0 mi WSW 11.5 mph 18.4 mph N/A   Overcast
9:35 AM 33.8 °F 25.8 °F 30.2 °F 87% 29.46 in 10.0 mi SW 10.4 mph 18.4 mph N/A   Overcast
9:55 AM 33.8 °F 24.3 °F 30.2 °F 87% 29.46 in 9.0 mi WSW 13.8 mph 24.2 mph N/A   Overcast
10:15 AM 33.8 °F 25.3 °F 30.2 °F 87% 29.46 in 10.0 mi SW 11.5 mph 23.0 mph N/A   Overcast
10:35 AM 35.6 °F 26.2 °F 28.4 °F 75% 29.46 in 10.0 mi SW 15.0 mph 24.2 mph N/A   Overcast
10:55 AM 35.6 °F 24.8 °F 28.4 °F 75% 29.45 in 10.0 mi WSW 19.6 mph 27.6 mph N/A   Overcast
11:15 AM 35.6 °F 26.6 °F 26.6 °F 70% 29.45 in 10.0 mi WSW 13.8 mph 28.8 mph N/A   Overcast
11:35 AM 35.6 °F 24.8 °F 26.6 °F 70% 29.44 in 10.0 mi WSW 19.6 mph 31.1 mph N/A   Overcast
11:55 AM 33.8 °F 23.5 °F 26.6 °F 75% 29.44 in 10.0 mi WSW 16.1 mph 26.5 mph N/A   Overcast
12:15 PM 33.8 °F 23.2 °F 26.6 °F 75% 29.43 in 10.0 mi WSW 17.3 mph 28.8 mph N/A   Overcast
12:35 PM 33.8 °F 24.3 °F 30.2 °F 87% 29.43 in 3.0 mi WSW 13.8 mph 25.3 mph N/A   Overcast
12:55 PM 33.8 °F 23.2 °F 28.4 °F 81% 29.43 in 10.0 mi West 17.3 mph 27.6 mph N/A   Overcast
1:15 PM 32.0 °F 20.8 °F 28.4 °F 87% 29.43 in 6.0 mi West 17.3 mph 31.1 mph N/A   Overcast
1:35 PM 30.2 °F 16.5 °F 28.4 °F 93% 29.43 in 4.0 mi West 24.2 mph 33.4 mph N/A   Overcast
1:55 PM 30.2 °F 16.5 °F 28.4 °F 93% 29.43 in 1.5 mi West 24.2 mph 33.4 mph N/A   Overcast
2:15 PM 30.2 °F 16.2 °F 28.4 °F 93% 29.42 in 0.8 mi West 25.3 mph 34.5 mph N/A   Overcast
2:35 PM 28.4 °F 13.5 °F 28.4 °F 100% 29.43 in 1.0 mi WNW 26.5 mph 33.4 mph N/A   Overcast
2:55 PM 28.4 °F 12.5 °F 28.4 °F 100% 29.43 in 2.5 mi NW 31.1 mph 40.3 mph N/A   Overcast
3:15 PM 28.4 °F 13.5 °F 26.6 °F 93% 29.47 in 1.5 mi NW 26.5 mph 40.3 mph N/A   Overcast
3:35 PM 28.4 °F 12.7 °F 26.6 °F 93% 29.49 in 0.8 mi NW 29.9 mph 39.1 mph N/A   Overcast
3:55 PM 28.4 °F 12.0 °F 26.6 °F 93% 29.52 in 0.8 mi NW 33.4 mph 43.7 mph N/A   Overcast
4:15 PM 28.4 °F 13.8 °F 26.6 °F 93% 29.58 in 0.5 mi NNW 25.3 mph 34.5 mph N/A   Overcast
4:35 PM 28.4 °F 14.4 °F 26.6 °F 93% 29.61 in 1.0 mi NNW 23.0 mph 34.5 mph N/A   Overcast
4:55 PM 28.4 °F 12.7 °F 24.8 °F 86% 29.62 in 2.5 mi NNW 29.9 mph 41.4 mph N/A   Mostly Cloudy
5:15 PM 28.4 °F 13.0 °F 26.6 °F 93% 29.64 in 1.2 mi NNW 28.8 mph 41.4 mph N/A   Overcast
5:35 PM 28.4 °F 12.3 °F 26.6 °F 93% 29.66 in 2.5 mi NNW 32.2 mph 38.0 mph N/A   Overcast
5:55 PM 30.2 °F 15.7 °F 24.8 °F 80% 29.68 in 10.0 mi NNW 27.6 mph 42.6 mph N/A   Overcast
6:15 PM 30.2 °F 16.8 °F 26.6 °F 86% 29.72 in 3.0 mi NNW 23.0 mph 32.2 mph N/A   Overcast
6:35 PM 28.4 °F 15.4 °F 28.4 °F 100% 29.74 in 2.0 mi NW 19.6 mph 36.8 mph N/A   Overcast
6:55 PM 28.4 °F 13.3 °F 26.6 °F 93% 29.73 in 2.0 mi NW 27.6 mph 39.1 mph N/A   Overcast
7:15 PM 28.4 °F 15.1 °F 28.4 °F 100% 29.77 in 1.5 mi NW 20.7 mph 29.9 mph N/A   Overcast
7:35 PM 28.4 °F 15.1 °F 28.4 °F 100% 29.78 in 1.5 mi NW 20.7 mph 28.8 mph N/A   Overcast
7:55 PM 28.4 °F 14.1 °F 28.4 °F 100% 29.79 in 1.0 mi NW 24.2 mph 31.1 mph N/A   Overcast
8:15 PM 28.4 °F 16.2 °F 28.4 °F 100% 29.81 in 1.0 mi NW 17.3 mph 26.5 mph N/A   Overcast
8:35 PM 28.4 °F 15.4 °F 28.4 °F 100% 29.81 in 1.2 mi NW 19.6 mph 26.5 mph N/A   Overcast
8:55 PM 28.4 °F 14.7 °F 28.4 °F 100% 29.81 in 0.5 mi NW 21.9 mph 32.2 mph N/A   Overcast
9:15 PM 28.4 °F 14.7 °F 28.4 °F 100% 29.82 in 0.5 mi NW 21.9 mph 26.5 mph N/A   Overcast
9:35 PM 28.4 °F 15.8 °F 28.4 °F 100% 29.83 in 1.5 mi NW 18.4 mph 24.2 mph N/A   Overcast
9:55 PM 28.4 °F 16.6 °F 26.6 °F 93% 29.83 in 1.0 mi NW 16.1 mph 27.6 mph N/A   Overcast
10:35 PM 28.4 °F 14.7 °F 26.6 °F 93% 29.84 in 1.5 mi NW 21.9 mph 28.8 mph N/A   Overcast
10:55 PM 26.6 °F 14.3 °F 26.6 °F 100% 29.85 in 0.8 mi NW 16.1 mph - N/A   Overcast
11:15 PM 26.6 °F 14.7 °F 24.8 °F 93% 29.86 in 3.0 mi NW 15.0 mph 20.7 mph N/A   Mostly Cloudy
11:35 PM 26.6 °F 13.8 °F 26.6 °F 100% 29.86 in 3.0 mi NW 17.3 mph - N/A   Overcast
11:55 PM 26.6 °F 12.7 °F 26.6 °F 100% 29.86 in 1.2 mi NNW 20.7 mph 26.5 mph N/A   Overcast